Location: Buchdorf
(48.7842°N, 10.8275°E)
Time: 18:56:27
(UTC+00:00)

MINOTAUR IV R/B - Pass Details

Date: 09 April 2020
Orbit: 618 x 646 km, 72.0° (Epoch: 14 May)

Event Time Altitude Azimuth Distance (km) Brightness Sun altitude
Rises 19:30:39 0° 202° (SSW) 2,880 7.9 -14.6°
Reaches altitude 10° 19:32:53 10° 201° (SSW) 1,979 7.0 -14.9°
Maximum altitude 19:37:19 81° 115° (ESE) 633 4.4 -15.6°
Drops below altitude 10° 19:41:48 10° 28° (NNE) 1,999 7.2 -16.2°
Sets 19:44:05 0° 28° (NNE) 2,913 8.1 -16.5°
